Hourly Weather Muromcevo

Today, 20 September, Monday

Time Temperature Precipitation Wind Pressure Humidity
00:00 +8°C° 0.5 mm 6 mps 739 mmHg 95%
01:00 +8°C° 0.1 mm 5 mps 739 mmHg 95%
02:00 +9°C° 0.1 mm 5 mps 739 mmHg 96%
03:00 +10°C° 0.1 mm 4 mps 739 mmHg 96%
04:00 +10°C° 0.1 mm 4 mps 738 mmHg 97%
05:00 +11°C° 0.1 mm 4 mps 738 mmHg 97%
06:00 +11°C° 0.1 mm 4 mps 738 mmHg 98%
07:00 +11°C° 0 mm 4 mps 738 mmHg 97%
08:00 +12°C° 0 mm 5 mps 738 mmHg 96%
09:00 +12°C° 0 mm 5 mps 739 mmHg 95%
10:00 +12°C° 0.3 mm 5 mps 739 mmHg 94%
11:00 +11°C° 0.3 mm 6 mps 739 mmHg 94%
12:00 +11°C° 0.3 mm 6 mps 739 mmHg 93%
13:00 +11°C° 0.8 mm 6 mps 739 mmHg 94%
14:00 +10°C° 0.8 mm 6 mps 739 mmHg 95%
15:00 +10°C° 0.8 mm 6 mps 739 mmHg 95%
16:00 +10°C° 1.1 mm 5 mps 739 mmHg 95%
17:00 +10°C° 1.1 mm 5 mps 739 mmHg 94%
18:00 +10°C° 1.1 mm 4 mps 739 mmHg 94%
19:00 +10°C° 0.2 mm 3 mps 739 mmHg 94%
20:00 +10°C° 0.2 mm 3 mps 740 mmHg 94%
21:00 +10°C° 0.2 mm 2 mps 740 mmHg 93%
22:00 +9°C° 0.3 mm 2 mps 740 mmHg 93%
23:00 +9°C° 0.3 mm 2 mps 740 mmHg 92%

Tomorrow, 21 September, Tuesday

Time Temperature Precipitation Wind Pressure Humidity
00:00 +10°C° 0.3 mm 1 mps 740 mmHg 92%
01:00 +9°C° 0.1 mm 2 mps 740 mmHg 91%
02:00 +9°C° 0.1 mm 2 mps 740 mmHg 91%
03:00 +9°C° 0.1 mm 2 mps 740 mmHg 90%
04:00 +8°C° 0 mm 2 mps 740 mmHg 90%
05:00 +8°C° 0 mm 2 mps 740 mmHg 90%
06:00 +8°C° 0 mm 2 mps 740 mmHg 90%
07:00 +8°C° 0 mm 2 mps 740 mmHg 90%
08:00 +8°C° 0 mm 3 mps 740 mmHg 90%
09:00 +9°C° 0 mm 3 mps 740 mmHg 90%
10:00 +9°C° 0 mm 3 mps 740 mmHg 88%
11:00 +9°C° 0 mm 3 mps 741 mmHg 86%
12:00 +9°C° 0 mm 3 mps 741 mmHg 85%
13:00 +10°C° 0 mm 3 mps 741 mmHg 82%
14:00 +10°C° 0 mm 3 mps 741 mmHg 80%
15:00 +10°C° 0 mm 2 mps 741 mmHg 78%
16:00 +10°C° 0 mm 2 mps 741 mmHg 80%
17:00 +9°C° 0 mm 2 mps 741 mmHg 82%
18:00 +10°C° 0 mm 1 mps 741 mmHg 84%
19:00 +10°C° 0.1 mm 1 mps 741 mmHg 85%
20:00 +9°C° 0.1 mm 1 mps 741 mmHg 87%
21:00 +9°C° 0.1 mm 1 mps 741 mmHg 89%
22:00 +9°C° 0.1 mm 1 mps 741 mmHg 89%
23:00 +9°C° 0.1 mm 1 mps 741 mmHg 89%

Day after tomorrow, 22 September, Wednesday

Time Temperature Precipitation Wind Pressure Humidity
00:00 +9°C° 0.1 mm 1 mps 740 mmHg 89%
01:00 +9°C° 0 mm 1 mps 740 mmHg 89%
02:00 +8°C° 0 mm 1 mps 740 mmHg 89%
03:00 +8°C° 0 mm 1 mps 740 mmHg 89%
04:00 +8°C° 0.1 mm 1 mps 740 mmHg 89%
05:00 +8°C° 0.1 mm 1 mps 740 mmHg 89%
06:00 +8°C° 0.1 mm 1 mps 740 mmHg 89%
07:00 +8°C° 0.1 mm 1 mps 740 mmHg 87%
08:00 +7°C° 0.1 mm 2 mps 740 mmHg 85%
09:00 +7°C° 0.1 mm 2 mps 740 mmHg 84%
10:00 +7°C° 0.1 mm 2 mps 740 mmHg 83%
11:00 +7°C° 0.1 mm 2 mps 740 mmHg 82%
12:00 +9°C° 0.1 mm 1 mps 740 mmHg 82%
13:00 +9°C° 0.1 mm 1 mps 741 mmHg 81%
14:00 +9°C° 0.1 mm 1 mps 741 mmHg 81%
15:00 +9°C° 0.1 mm 1 mps 741 mmHg 80%
16:00 +9°C° 0 mm 1 mps 741 mmHg 81%
17:00 +9°C° 0 mm 1 mps 741 mmHg 82%
18:00 +9°C° 0 mm 1 mps 741 mmHg 83%
19:00 +9°C° 0 mm 1 mps 741 mmHg 85%
20:00 +9°C° 0 mm 1 mps 742 mmHg 86%
21:00 +7°C° 0 mm 2 mps 742 mmHg 88%
22:00 +7°C° 0 mm 2 mps 742 mmHg 89%
23:00 +7°C° 0 mm 2 mps 742 mmHg 89%

23 September, Thursday

Time Temperature Precipitation Wind Pressure Humidity
00:00 +7°C° 0 mm 2 mps 742 mmHg 90%
01:00 +7°C° 0 mm 2 mps 742 mmHg 90%
02:00 +7°C° 0 mm 2 mps 742 mmHg 91%
03:00 +6°C° 0 mm 2 mps 742 mmHg 91%
04:00 +6°C° 0 mm 2 mps 742 mmHg 91%
05:00 +6°C° 0 mm 2 mps 742 mmHg 91%
06:00 +6°C° 0 mm 2 mps 742 mmHg 91%
07:00 +5°C° 0 mm 3 mps 742 mmHg 90%
08:00 +7°C° 0 mm 3 mps 742 mmHg 88%
09:00 +7°C° 0 mm 3 mps 742 mmHg 87%
10:00 +7°C° 0.1 mm 3 mps 742 mmHg 86%
11:00 +7°C° 0.1 mm 3 mps 742 mmHg 85%
12:00 +7°C° 0.1 mm 3 mps 742 mmHg 84%
13:00 +7°C° 0 mm 3 mps 742 mmHg 83%
14:00 +7°C° 0 mm 3 mps 742 mmHg 82%
15:00 +7°C° 0 mm 3 mps 742 mmHg 82%
16:00 +7°C° 0.1 mm 3 mps 742 mmHg 82%
17:00 +7°C° 0.1 mm 3 mps 742 mmHg 83%
18:00 +7°C° 0.1 mm 3 mps 742 mmHg 83%
19:00 +7°C° 0 mm 3 mps 742 mmHg 85%
20:00 +5°C° 0 mm 3 mps 741 mmHg 86%
21:00 +5°C° 0 mm 3 mps 741 mmHg 88%
22:00 +5°C° 0 mm 3 mps 741 mmHg 89%
23:00 +5°C° 0 mm 3 mps 741 mmHg 90%

24 September, Friday

Time Temperature Precipitation Wind Pressure Humidity
00:00 +4°C° 0 mm 3 mps 741 mmHg 91%
01:00 +4°C° 0 mm 3 mps 741 mmHg 91%
02:00 +4°C° 0 mm 3 mps 740 mmHg 92%
03:00 +4°C° 0 mm 3 mps 740 mmHg 92%
04:00 +4°C° 0 mm 3 mps 740 mmHg 92%
05:00 +4°C° 0 mm 3 mps 740 mmHg 92%
06:00 +4°C° 0 mm 3 mps 740 mmHg 92%
07:00 +5°C° 0 mm 4 mps 740 mmHg 88%
08:00 +6°C° 0 mm 4 mps 739 mmHg 84%
09:00 +6°C° 0 mm 5 mps 739 mmHg 81%
10:00 +7°C° 0 mm 5 mps 739 mmHg 74%
11:00 +8°C° 0 mm 6 mps 738 mmHg 68%
12:00 +9°C° 0 mm 6 mps 738 mmHg 61%
13:00 +9°C° 0 mm 6 mps 737 mmHg 60%
14:00 +9°C° 0 mm 6 mps 737 mmHg 59%
15:00 +9°C° 0 mm 6 mps 736 mmHg 59%
16:00 +9°C° 0.2 mm 6 mps 736 mmHg 64%
17:00 +8°C° 0.2 mm 7 mps 735 mmHg 70%
18:00 +8°C° 0.2 mm 7 mps 735 mmHg 76%
19:00 +6°C° 0.9 mm 7 mps 734 mmHg 81%
20:00 +6°C° 0.9 mm 7 mps 734 mmHg 86%
21:00 +5°C° 0.9 mm 7 mps 733 mmHg 91%
22:00 +6°C° 0.5 mm 7 mps 733 mmHg 92%
23:00 +6°C° 0.5 mm 7 mps 732 mmHg 93%

25 September, Saturday

Time Temperature Precipitation Wind Pressure Humidity
00:00 +7°C° 0.5 mm 6 mps 732 mmHg 94%
01:00 +7°C° 0.4 mm 6 mps 732 mmHg 94%
02:00 +8°C° 0.4 mm 6 mps 732 mmHg 93%
03:00 +8°C° 0.4 mm 6 mps 732 mmHg 92%
04:00 +8°C° 0.1 mm 6 mps 733 mmHg 92%
05:00 +8°C° 0.1 mm 6 mps 733 mmHg 92%
06:00 +8°C° 0.1 mm 6 mps 733 mmHg 92%
07:00 +8°C° 0 mm 6 mps 734 mmHg 91%
08:00 +8°C° 0 mm 6 mps 734 mmHg 90%
09:00 +8°C° 0 mm 6 mps 734 mmHg 89%
10:00 +8°C° 0 mm 6 mps 734 mmHg 89%
11:00 +8°C° 0 mm 6 mps 735 mmHg 90%
12:00 +8°C° 0 mm 6 mps 735 mmHg 91%
13:00 +9°C° 0.1 mm 6 mps 735 mmHg 84%
14:00 +10°C° 0.1 mm 5 mps 735 mmHg 77%
15:00 +12°C° 0.1 mm 5 mps 735 mmHg 71%
16:00 +10°C° 0.6 mm 5 mps 735 mmHg 77%
17:00 +10°C° 0.6 mm 4 mps 736 mmHg 84%
18:00 +10°C° 0.6 mm 4 mps 736 mmHg 91%
19:00 +9°C° 0.9 mm 3 mps 736 mmHg 92%
20:00 +9°C° 0.9 mm 2 mps 736 mmHg 93%
21:00 +9°C° 0.9 mm 2 mps 737 mmHg 95%
22:00 +9°C° 0.1 mm 2 mps 737 mmHg 93%
23:00 +9°C° 0.1 mm 3 mps 738 mmHg 92%
Show more

We Need Your Consent

Meteoprog and our Service Providers may store and access personal data such as cookies, device identifiers or other similar technologies on your device and process such data to personalise content and ads, as well as provide social media features and to analyse the traffic.

  • Store and/or access information on your device

    Cookies, device identifiers or other information can be stored or accessed on your device for the purposes indicated above.

  • Personalised ads and content, ad and content measurement, audience insights, and products development

    Ads and content can be personalised based on a profile. More data can be added to better personalise ads and content. Ad and content performance can be measured. Insights about the audience who saw the ads and content can be derived. Such data can be used to develop or improve user’s experience, systems and software.

By clicking ‘I Agree’ you will allow the use of indicated cookies, device identifiers, web beacons or other similar technologies. Your settings can be changed in the browser on your device.

For certain purposes, legitimate interests may be relied on, rather than consent. You can read more about this in our Privacy and Cookie Policy.